Tracking 29892 objects as of 21-Nov-2024
HD Live streaming from Space Station
objects crossing your sky now

STARLINK-3838

Track STARLINK-3838 now!
10-day predictions
STARLINK-3838 is classified as:


NORAD ID: 52352
Int'l Code: 2022-045X
Perigee: 545.9 km
Apogee: 547.9 km
Inclination: 53.2 °
Period: 95.4 minutes
Semi major axis: 6917 km
RCS: Unknown
Launch date: April 29, 2022
Source: United States (US)
Launch site: AIR FORCE EASTERN TEST RANGE (AFETR)
Your satellite tracking list
Your tracking list is empty




NASA's NSSDC Master Catalog

Two Line Element Set (TLE):
1 52352U 22045X   24325.93625709  .00000086  00000-0  23479-4 0  9990
2 52352  53.2156 165.8810 0001444  92.4866 267.6291 15.08840565144260
Source of the keplerian elements: AFSPC